Sigfox identifier Datetime Temperature Humidity SNR
003A57B6 2019-04-23 14:46:23 16.3 29 22.2
003A57B6 2019-04-23 14:11:06 16.3 29 22.1
003A57B6 2019-04-23 13:35:48 16 29 22.1
003A57B6 2019-04-23 13:00:33 16 29 21.9
003A57B6 2019-04-23 12:25:18 15.9 29 21.8
003A57B6 2019-04-23 11:50:01 15.8 29 21.7
003A57B6 2019-04-23 11:14:45 15.6 29 21.5
003A57B6 2019-04-23 10:39:28 15.6 29 21
003A57B6 2019-04-23 10:04:11 15.6 29 19.9
003A57B6 2019-04-23 09:28:53 15.6 28 19.3
003A57B6 2019-04-23 08:53:36 15.6 28 19
003A57B6 2019-04-23 08:18:20 15.6 28 18.1
003A57B6 2019-04-23 07:43:04 15.6 28 18.2
003A57B6 2019-04-23 07:07:49 15.6 28 18.2
003A57B6 2019-04-23 06:32:29 15.6 28 18.4
003A57B6 2019-04-23 05:57:13 15.6 28 18.5
003A57B6 2019-04-23 05:21:57 15.5 28 18.5
003A57B6 2019-04-23 04:46:40 15.5 28 18.5
003A57B6 2019-04-23 04:11:22 15.6 28 18.4
003A57B6 2019-04-23 03:36:04 15.6 28 18.3
003A57B6 2019-04-23 03:00:47 15.4 28 18.2
003A57B6 2019-04-23 02:25:29 15.5 28 18.2
003A57B6 2019-04-23 01:50:12 15.6 28 18.1
003A57B6 2019-04-23 01:14:54 15.6 28 20.1
003A57B6 2019-04-23 00:39:39 15.6 28 20.1
003A57B6 2019-04-23 00:04:19 15.6 28 20.1
003A57B6 2019-04-22 23:29:03 15.6 28 20.1
003A57B6 2019-04-22 22:53:46 15.6 28 20
003A57B6 2019-04-22 22:18:30 15.6 28 20
003A57B6 2019-04-22 21:43:13 15.7 28 19.9
003A57B6 2019-04-22 21:07:56 15.8 28 19.8
003A57B6 2019-04-22 20:32:38 15.8 28 19.9
003A57B6 2019-04-22 19:57:23 15.8 28 19.9
003A57B6 2019-04-22 19:22:04 15.9 28 19.9
003A57B6 2019-04-22 18:46:49 16 28 19.8
003A57B6 2019-04-22 18:11:33 16 28 19.9
003A57B6 2019-04-22 17:36:18 16 28 19.9
003A57B6 2019-04-22 17:01:01 16 28 19.9
003A57B6 2019-04-22 16:25:44 15.9 28 20
003A57B6 2019-04-22 15:50:27 15.9 28 19.9
003A57B6 2019-04-22 15:15:11 15.9 28 19.8
003A57B6 2019-04-22 14:39:55 15.8 28 20
003A57B6 2019-04-22 14:04:39 15.8 28 19.9
003A57B6 2019-04-22 13:29:23 15.8 28 20
003A57B6 2019-04-22 12:54:06 15.7 28 20.1
003A57B6 2019-04-22 12:18:50 15.7 28 20.1
003A57B6 2019-04-22 11:43:35 15.7 28 20.1
003A57B6 2019-04-22 11:08:19 15.7 28 20.2
003A57B6 2019-04-22 10:33:02 15.7 28 18.2
003A57B6 2019-04-22 09:57:46 15.6 27 18.2
003A57B6 2019-04-22 09:22:30 15.6 27 18.1
003A57B6 2019-04-22 08:47:14 15.6 27 18.1
003A57B6 2019-04-22 08:11:59 15.6 27 18.1
003A57B6 2019-04-22 07:36:42 15.6 27 18.1
003A57B6 2019-04-22 07:01:27 15.6 27 18.1
003A57B6 2019-04-22 06:26:14 15.6 27 18.2
003A57B6 2019-04-22 05:50:53 15.6 27 18
003A57B6 2019-04-22 05:15:37 15.6 27 18
003A57B6 2019-04-22 04:40:21 15.6 27 18
003A57B6 2019-04-22 04:05:05 15.6 27 17.9
003A57B6 2019-04-22 03:29:49 15.6 27 17.8
003A57B6 2019-04-22 02:54:32 15.6 27 17.8
003A57B6 2019-04-22 02:19:16 15.5 27 17.8
003A57B6 2019-04-22 01:44:00 15.6 27 18
003A57B6 2019-04-22 01:08:43 15.5 27 18
003A57B6 2019-04-22 00:33:27 15.4 27 18
003A57B6 2019-04-21 23:58:11 15.5 27 18.1
003A57B6 2019-04-21 23:22:56 15.4 27 18.1
003A57B6 2019-04-21 22:47:41 15.4 27 20
003A57B6 2019-04-21 22:12:26 15.4 27 20
003A57B6 2019-04-21 21:37:11 15.4 27 20.2
003A57B6 2019-04-21 21:01:55 15.4 27 20.4
003A57B6 2019-04-21 20:26:40 15.4 27 20.5
003A57B6 2019-04-21 19:51:23 15.4 27 20.6
003A57B6 2019-04-21 19:16:07 15.4 27 20.7
003A57B6 2019-04-21 18:40:51 15.4 27 20.8
003A57B6 2019-04-21 18:05:34 15.4 27 20.9
003A57B6 2019-04-21 17:30:19 15.4 27 21
003A57B6 2019-04-21 16:55:02 15.4 27 21
003A57B6 2019-04-21 16:19:46 15.4 27 21.1
003A57B6 2019-04-21 15:44:30 15.4 27 21.1
003A57B6 2019-04-21 15:09:14 15.4 27 21.1
003A57B6 2019-04-21 14:33:57 15.4 27 21.2
003A57B6 2019-04-21 13:58:40 15.4 27 21.2
003A57B6 2019-04-21 13:23:23 15.4 27 21.3
003A57B6 2019-04-21 12:48:07 15.4 26 21.3
003A57B6 2019-04-21 12:12:50 15.4 26 21.3
003A57B6 2019-04-21 11:37:33 15.4 26 21.3
003A57B6 2019-04-21 11:02:18 15.4 26 21.3
003A57B6 2019-04-21 10:27:02 15.4 26 21.3
003A57B6 2019-04-21 09:51:46 15.4 26 21.3
003A57B6 2019-04-21 09:16:30 15.6 26 21.2
003A57B6 2019-04-21 08:41:13 15.6 26 21.2
003A57B6 2019-04-21 08:05:58 15.6 26 19.7
003A57B6 2019-04-21 07:30:39 15.6 26 19.8
003A57B6 2019-04-21 06:55:22 15.6 26 19.6
003A57B6 2019-04-21 06:20:04 15.6 26 19.5
003A57B6 2019-04-21 05:44:48 15.6 26 19.3
003A57B6 2019-04-21 05:09:31 15.6 26 19.2
003A57B6 2019-04-21 04:34:14 15.6 26 19.1
003A57B6 2019-04-21 03:58:58 15.6 26 18.9
003A57B6 2019-04-21 03:23:41 15.5 26 18.8
003A57B6 2019-04-21 02:48:26 15.6 26 18.7
003A57B6 2019-04-21 02:13:09 15.5 26 18.7
003A57B6 2019-04-21 01:37:52 15.6 26 18.7
003A57B6 2019-04-21 01:02:35 15.4 26 18.5
003A57B6 2019-04-21 00:27:17 15.5 26 18.6
003A57B6 2019-04-20 23:52:00 15.6 26 18.3
003A57B6 2019-04-20 23:16:44 15.4 26 18.2
003A57B6 2019-04-20 22:41:26 15.4 26 18.1
003A57B6 2019-04-20 22:06:10 15.4 26 17.9
003A57B6 2019-04-20 21:30:53 15.4 26 17.7
003A57B6 2019-04-20 20:55:37 15.4 26 17.6
003A57B6 2019-04-20 20:20:21 15.4 26 17.4
003A57B6 2019-04-20 19:45:05 15.4 26 17.4
003A57B6 2019-04-20 19:09:48 15.4 26 17.4
003A57B6 2019-04-20 18:34:31 15.5 26 17.5
003A57B6 2019-04-20 17:59:14 15.5 26 17.5
003A57B6 2019-04-20 17:23:58 15.4 26 17.5
003A57B6 2019-04-20 16:48:40 15.4 25 17.5
003A57B6 2019-04-20 16:13:24 15.4 26 17.5
003A57B6 2019-04-20 15:38:06 15.4 26 17.3
003A57B6 2019-04-20 15:02:49 15.4 25 17.2
003A57B6 2019-04-20 14:27:32 15.4 25 17.1
003A57B6 2019-04-20 13:52:15 15.4 25 17.1
003A57B6 2019-04-20 13:16:58 15.4 25 17
003A57B6 2019-04-20 12:41:41 15.4 25 16.9
003A57B6 2019-04-20 12:06:24 15.4 25 16.9
003A57B6 2019-04-20 11:31:05 15.4 25 16.9
003A57B6 2019-04-20 10:55:48 15.4 25 16.8
003A57B6 2019-04-20 10:20:31 15.4 25 16.9
003A57B6 2019-04-20 09:45:14 15.5 25 16.8
003A57B6 2019-04-20 09:09:56 15.5 25 16.9
003A57B6 2019-04-20 08:34:39 15.6 25 16.8
003A57B6 2019-04-20 07:59:21 15.6 25 16.8
003A57B6 2019-04-20 07:24:05 15.6 25 16.8
003A57B6 2019-04-20 06:48:48 15.6 25 16.9
003A57B6 2019-04-20 06:13:30 15.6 25 16.7
003A57B6 2019-04-20 05:38:13 15.6 25 16.6
003A57B6 2019-04-20 05:02:56 15.6 25 16.4
003A57B6 2019-04-20 04:27:39 15.6 25 16.3
003A57B6 2019-04-20 03:52:22 15.6 25 16.2
003A57B6 2019-04-20 03:17:05 15.6 25 16.1
003A57B6 2019-04-20 02:41:49 15.6 25 16
003A57B6 2019-04-20 02:06:33 15.8 25 15.8
003A57B6 2019-04-20 01:31:16 15.8 25 15.8
003A57B6 2019-04-20 00:55:59 15.8 25 15.8
003A57B6 2019-04-20 00:20:43 15.8 25 15.9
003A57B6 2019-04-19 23:45:26 15.9 25 15.8
003A57B6 2019-04-19 23:10:10 16 25 15.7
003A57B6 2019-04-19 22:34:55 16 25 15.7
003A57B6 2019-04-19 21:59:35 16 25 15.7
003A57B6 2019-04-19 21:24:19 16 25 15.6
003A57B6 2019-04-19 20:49:03 16 25 15.7
003A57B6 2019-04-19 20:13:48 16.1 25 15.8
003A57B6 2019-04-19 19:38:32 16 25 15.7
003A57B6 2019-04-19 19:03:16 16.2 25 15.7
003A57B6 2019-04-19 18:27:59 16.2 24 15.8
003A57B6 2019-04-19 17:52:42 16.2 24 15.7
003A57B6 2019-04-19 17:17:25 16.1 24 15.7
003A57B6 2019-04-19 16:42:09 16 24 15.6
003A57B6 2019-04-19 16:06:51 16 24 15.6
003A57B6 2019-04-19 15:31:34 16 24 15.7
003A57B6 2019-04-19 14:56:20 16 24 15.7
003A57B6 2019-04-19 13:45:43 15.9 24 15.7
003A57B6 2019-04-19 13:10:27 15.8 24 15.6
003A57B6 2019-04-19 12:35:09 15.8 24 15.6
003A57B6 2019-04-19 11:59:52 15.8 24 15.5
003A57B6 2019-04-19 11:24:35 15.8 24 15.2
003A57B6 2019-04-19 10:49:19 15.8 24 15.4
003A57B6 2019-04-19 10:14:03 15.7 24 15.5
003A57B6 2019-04-19 09:38:47 15.8 24 15.6
003A57B6 2019-04-19 09:03:31 15.6 24 16.1
003A57B6 2019-04-19 08:28:13 15.7 24 16.3
003A57B6 2019-04-19 07:52:58 15.8 24 16.8
003A57B6 2019-04-19 07:17:43 15.8 24 17.5
003A57B6 2019-04-19 06:42:25 15.8 24 18.2
003A57B6 2019-04-19 06:07:08 15.8 24 18.9
003A57B6 2019-04-19 05:31:51 15.8 24 19.3
003A57B6 2019-04-19 04:56:36 15.8 24 19.3
003A57B6 2019-04-19 04:21:19 15.8 24 20
003A57B6 2019-04-19 03:46:03 15.8 24 20.5
003A57B6 2019-04-19 03:10:45 15.9 24 21.2
003A57B6 2019-04-19 02:35:29 15.9 23 21.5
003A57B6 2019-04-19 02:00:12 16 23 21.7
003A57B6 2019-04-19 01:24:55 16 23 22.1
003A57B6 2019-04-19 00:49:38 16.2 23 22.5
003A57B6 2019-04-19 00:14:21 16.3 23 22.7
003A57B6 2019-04-18 23:39:04 16.3 23 22.8
003A57B6 2019-04-18 23:03:45 16.4 23 22.8
003A57B6 2019-04-18 22:28:29 16.5 23 23.1
003A57B6 2019-04-18 21:53:12 16.5 23 23.3
003A57B6 2019-04-18 21:17:56 16.5 23 23.3
003A57B6 2019-04-18 20:42:39 16.5 23 23.4
003A57B6 2019-04-18 20:07:22 16.5 23 23.6
003A57B6 2019-04-18 19:32:06 16.6 23 23.6
003A57B6 2019-04-18 18:56:48 16.7 23 23.7
003A57B6 2019-04-18 18:21:32 16.6 23 23.7
003A57B6 2019-04-18 17:46:14 16.5 23 23.7
003A57B6 2019-04-18 17:10:56 16.5 23 23.7
003A57B6 2019-04-18 16:35:39 16.5 23 23.6
003A57B6 2019-04-18 16:00:22 16.5 23 23.5
003A57B6 2019-04-18 15:25:06 16.3 23 23.5
003A57B6 2019-04-18 14:49:49 16.3 23 23.6
003A57B6 2019-04-18 14:14:32 16.2 23 23.4
003A57B6 2019-04-18 13:39:15 16.1 23 23.3
003A57B6 2019-04-18 13:03:57 16 23 23
003A57B6 2019-04-18 12:28:40 16 23 22.8
003A57B6 2019-04-18 11:53:23 16 23 22.6
003A57B6 2019-04-18 11:18:05 16 23 22.5
003A57B6 2019-04-18 10:42:48 16 23 22.3
003A57B6 2019-04-18 10:07:31 16 23 22.2
003A57B6 2019-04-18 09:32:13 15.8 23 22.3
003A57B6 2019-04-18 08:56:56 15.9 22 22.3
003A57B6 2019-04-18 08:21:41 16.1 23 22.2
003A57B6 2019-04-18 07:46:26 16.1 23 22.1
003A57B6 2019-04-18 07:11:07 16 23 22.2
003A57B6 2019-04-18 06:35:50 16 22 22.3
003A57B6 2019-04-18 06:00:33 16 22 22.3
003A57B6 2019-04-18 05:25:16 16 22 22.3
003A57B6 2019-04-18 04:49:58 16 22 22.5
003A57B6 2019-04-18 04:14:40 16 22 22.4
003A57B6 2019-04-18 03:39:20 16 22 22.5
003A57B6 2019-04-18 03:04:02 16 22 22.5
003A57B6 2019-04-18 02:28:44 16 22 22.4
003A57B6 2019-04-18 01:53:27 16 22 23.1
003A57B6 2019-04-18 01:18:06 16.3 22 23
003A57B6 2019-04-18 00:42:47 16.3 22 22.9
003A57B6 2019-04-18 00:07:29 16.5 22 22.9
003A57B6 2019-04-17 23:32:10 16.5 22 22.8
003A57B6 2019-04-17 22:56:52 16.5 22 22.7
003A57B6 2019-04-17 22:21:32 16.5 22 22.6
003A57B6 2019-04-17 21:46:14 16.5 22 22.6
003A57B6 2019-04-17 21:10:57 16.5 22 22.6
003A57B6 2019-04-17 20:35:39 16.4 22 23.3
003A57B6 2019-04-17 20:00:21 16.4 22 23.2
003A57B6 2019-04-17 19:25:04 16.4 22 23.2
003A57B6 2019-04-17 18:49:46 16.3 22 23.2
003A57B6 2019-04-17 18:14:28 16.3 22 23.3
003A57B6 2019-04-17 17:39:10 16.3 22 23.2
003A57B6 2019-04-17 17:03:53 16.3 22 23.2
003A57B6 2019-04-17 16:28:37 16.3 22 23.2
003A57B6 2019-04-17 15:53:20 16.2 21 23.1
003A57B6 2019-04-17 15:18:03 16.3 21 23.1
003A57B6 2019-04-17 14:42:46 16.3 21 23
003A57B6 2019-04-17 14:07:29 16.3 21 22.7
003A57B6 2019-04-17 12:56:54 16.5 21 22.7
003A57B6 2019-04-17 12:21:37 16.5 21 22.5
003A57B6 2019-04-17 11:46:20 16.5 21 22.4
003A57B6 2019-04-17 11:11:02 16.4 21 22.3
003A57B6 2019-04-17 10:35:44 16.3 21 21.2
003A57B6 2019-04-17 10:00:25 16.5 21 21.2
003A57B6 2019-04-17 09:25:05 16.5 21 21.1
003A57B6 2019-04-17 08:49:46 16.6 21 20.8
003A57B6 2019-04-17 08:14:29 16.7 21 20.8
003A57B6 2019-04-17 07:39:09 16.9 21 20.8
003A57B6 2019-04-17 07:03:51 17.1 21 20.9
003A57B6 2019-04-17 06:28:34 17.2 21 20.9
003A57B6 2019-04-17 05:53:16 17.3 21 21
003A57B6 2019-04-17 05:17:59 17.3 21 19.4
003A57B6 2019-04-17 04:42:41 17.3 21 19.4
003A57B6 2019-04-17 04:07:23 17.4 21 19.2
003A57B6 2019-04-17 03:32:06 17.5 21 19
003A57B6 2019-04-17 02:56:49 17.5 21 19.1
003A57B6 2019-04-17 02:21:31 17.6 21 18.9
003A57B6 2019-04-17 01:46:13 17.6 21 18.9
003A57B6 2019-04-17 01:10:56 17.6 21 18.9
003A57B6 2019-04-17 00:35:39 17.5 21 18.7
003A57B6 2019-04-17 00:00:22 17.5 20 18.5
003A57B6 2019-04-16 23:25:05 17.5 20 18.3
003A57B6 2019-04-16 22:49:48 17.5 20 18.3
003A57B6 2019-04-16 22:14:33 18 20 18.4
003A57B6 2019-04-16 21:39:15 18.2 20 18.7
003A57B6 2019-04-16 21:03:59 18.4 20 18.8
003A57B6 2019-04-16 20:28:41 18.6 20 18.9
003A57B6 2019-04-16 19:53:24 18.6 20 18.9
003A57B6 2019-04-16 19:18:05 18.6 20 19.1
003A57B6 2019-04-16 18:42:47 18.6 20 19.4
003A57B6 2019-04-16 18:07:29 18.6 20 19.4
003A57B6 2019-04-16 17:32:12 18.8 20 19.3
003A57B6 2019-04-16 16:56:54 19 20 19.3
003A57B6 2019-04-16 15:46:20 19.5 20 19
003A57B6 2019-04-16 15:11:03 19.9 20 19.2
003A57B6 2019-04-16 14:35:46 20.3 20 19
003A57B6 2019-04-16 12:14:41 21 20 18.9
003A57B6 2019-04-16 11:39:22 20.9 20 19
003A57B6 2019-04-16 11:04:03 20.9 20 18.9
003A57B6 2019-04-16 10:28:49 20.9 20 19
003A57B6 2019-04-16 09:53:30 20.9 20 18.7
003A57B6 2019-04-16 09:18:12 20.9 20 18.7
003A57B6 2019-04-16 08:42:55 20.9 20 18.6
003A57B6 2019-04-16 08:07:38 20.8 20 18.1
003A57B6 2019-04-16 07:32:21 20.8 20 18.1
003A57B6 2019-04-16 06:57:04 20.8 20 20
003A57B6 2019-04-16 06:21:45 20.9 20 20.1
003A57B6 2019-04-16 05:46:27 21 20 20.2
003A57B6 2019-04-16 05:11:10 21 20 20.1
003A57B6 2019-04-16 04:35:55 20.9 20 20
003A57B6 2019-04-16 04:00:35 21 20 20.1
003A57B6 2019-04-16 03:25:18 21 20 20
003A57B6 2019-04-16 02:50:01 21 20 20.1
003A57B6 2019-04-16 02:14:42 21 20 19.8
003A57B6 2019-04-16 01:39:24 21 20 20.2
003A57B6 2019-04-16 01:04:07 21 20 20.7
003A57B6 2019-04-16 00:28:50 21 20 21.3
003A57B6 2019-04-15 23:53:33 21 19 21.6
003A57B6 2019-04-15 23:18:14 21 19 21.7
003A57B6 2019-04-15 22:42:57 21 19 22.1
003A57B6 2019-04-15 22:07:40 21 19 22.3
003A57B6 2019-04-15 21:32:22 21 19 22.5
003A57B6 2019-04-15 20:57:05 21 19 22.9
003A57B6 2019-04-15 20:21:47 21 19 23
003A57B6 2019-04-15 19:46:30 21 19 23.1
003A57B6 2019-04-15 19:11:12 21 19 23.2
003A57B6 2019-04-15 18:35:55 21.2 19 23.3
003A57B6 2019-04-15 18:00:37 21.2 19 23.5
003A57B6 2019-04-15 17:25:21 21.2 19 23.7
003A57B6 2019-04-15 16:50:04 21.4 19 23.1
003A57B6 2019-04-15 16:14:47 21.4 19 23.4
003A57B6 2019-04-15 15:39:30 21.4 18 23.5
003A57B6 2019-04-15 15:04:14 21.6 18 23.6
003A57B6 2019-04-15 14:28:58 21.6 18 23.7
003A57B6 2019-04-15 13:53:40 21.8 18 24
003A57B6 2019-04-15 13:18:24 22 18 24.1
003A57B6 2019-04-15 12:43:07 22.2 18 24.2
003A57B6 2019-04-15 12:07:50 22.4 17 24.8
003A57B6 2019-04-15 11:32:32 22.2 16 25.2
003A57B6 2019-04-15 10:57:15 22.1 16 25.3
003A57B6 2019-04-15 10:21:58 22 16 25.8
003A57B6 2019-04-15 09:46:42 22 17 25.7
003A57B6 2019-04-15 09:11:25 21.9 17 26
003A57B6 2019-04-15 08:36:08 21.8 17 26.1
003A57B6 2019-04-15 08:00:51 21.8 16 26.3
003A57B6 2019-04-15 07:25:34 21.7 17 26.3
003A57B6 2019-04-15 06:50:14 21.6 17 26.4
003A57B6 2019-04-15 06:14:57 21.6 17 26.3
003A57B6 2019-04-15 05:39:40 21.6 17 26.3
003A57B6 2019-04-15 05:04:23 21.6 17 26.4
003A57B6 2019-04-15 04:29:05 21.6 17 26.5
003A57B6 2019-04-15 03:53:48 21.6 17 26.6
003A57B6 2019-04-15 03:18:31 21.6 17 26.9
003A57B6 2019-04-15 02:43:14 21.6 17 26.9
003A57B6 2019-04-15 02:07:57 21.6 17 27
003A57B6 2019-04-15 01:32:39 21.6 17 27
003A57B6 2019-04-15 00:57:21 21.6 17 27.1
003A57B6 2019-04-15 00:22:03 21.6 17 27.1
003A57B6 2019-04-14 23:46:46 21.6 17 27.2
003A57B6 2019-04-14 23:11:28 21.6 17 27.1
003A57B6 2019-04-14 22:36:10 21.6 17 27.2
003A57B6 2019-04-14 22:00:51 21.6 18 27.4
003A57B6 2019-04-14 21:25:34 21.8 18 27.2
003A57B6 2019-04-14 20:50:16 21.8 18 27.1
003A57B6 2019-04-14 20:14:58 21.8 18 27
003A57B6 2019-04-14 19:39:40 21.8 18 26.7
003A57B6 2019-04-14 19:04:21 21.8 18 26.6
003A57B6 2019-04-14 18:29:03 21.8 18 26.4
003A57B6 2019-04-14 17:53:45 21.8 17 26.4
003A57B6 2019-04-14 17:18:26 21.8 17 26.4
003A57B6 2019-04-14 16:43:08 21.7 17 26.4
003A57B6 2019-04-14 16:07:51 21.7 18 26.4
003A57B6 2019-04-14 15:32:34 21.7 18 26.4
003A57B6 2019-04-14 14:57:16 21.7 18 26.4
003A57B6 2019-04-14 14:21:59 21.7 18 26.4
003A57B6 2019-04-14 13:46:42 21.8 18 26.4
003A57B6 2019-04-14 13:11:25 21.8 18 26.4
003A57B6 2019-04-14 12:36:08 21.8 18 26.1
003A57B6 2019-04-14 12:00:52 21.8 18 26.4
003A57B6 2019-04-14 11:25:35 21.8 18 26.3
003A57B6 2019-04-14 10:50:18 21.7 18 26.3
003A57B6 2019-04-14 10:15:00 21.7 18 26.4
003A57B6 2019-04-14 09:39:43 21.6 18 26.4
003A57B6 2019-04-14 09:04:25 21.7 18 26.3
003A57B6 2019-04-14 08:29:06 21.6 18 26.4
003A57B6 2019-04-14 07:53:49 21.6 18 26.3
003A57B6 2019-04-14 07:18:32 21.6 18 26.1
003A57B6 2019-04-14 06:43:15 21.6 17 26.1
003A57B6 2019-04-14 06:07:57 21.6 17 25.9
003A57B6 2019-04-14 05:32:39 21.6 17 25.9
003A57B6 2019-04-14 04:57:23 21.6 17 26.1
003A57B6 2019-04-14 04:22:07 21.6 17 26.2
003A57B6 2019-04-14 03:46:50 21.7 17 26.1
003A57B6 2019-04-14 03:11:33 21.7 17 26.2
003A57B6 2019-04-14 02:36:16 21.8 17 25.9
003A57B6 2019-04-14 02:00:58 21.7 18 25.8
003A57B6 2019-04-14 01:25:41 21.8 18 25.8
003A57B6 2019-04-14 00:50:23 21.8 18 25.8
003A57B6 2019-04-14 00:15:05 21.8 17 26.2
003A57B6 2019-04-13 23:39:47 21.8 17 26.1
003A57B6 2019-04-13 23:04:29 21.8 17 26.1
003A57B6 2019-04-13 22:29:11 21.8 17 26.2
003A57B6 2019-04-13 21:53:53 21.8 17 26.1
003A57B6 2019-04-13 21:18:35 21.8 17 25.8
003A57B6 2019-04-13 20:43:19 21.8 17 25.9
003A57B6 2019-04-13 20:08:02 21.8 17 25.7
003A57B6 2019-04-13 19:32:44 21.9 17 25.5
003A57B6 2019-04-13 18:57:28 22 17 25.5
003A57B6 2019-04-13 18:22:12 22 17 25.5
003A57B6 2019-04-13 17:46:54 22 17 25.5
003A57B6 2019-04-13 17:11:36 22 17 25.4
003A57B6 2019-04-13 16:36:19 22 17 25.7
003A57B6 2019-04-13 16:01:02 22 17 25.6
003A57B6 2019-04-13 15:25:45 22 17 25.7
003A57B6 2019-04-13 14:50:28 22.1 17 25.7
003A57B6 2019-04-13 14:15:12 22.1 17 25.5
003A57B6 2019-04-13 13:39:55 22.2 17 25.6
003A57B6 2019-04-13 13:04:38 22.2 17 26
003A57B6 2019-04-13 12:29:20 22.2 17 26
003A57B6 2019-04-13 11:54:02 22.2 17 26.1
003A57B6 2019-04-13 11:18:44 22.2 17 26.4
003A57B6 2019-04-13 10:43:25 22.2 17 26.4
003A57B6 2019-04-13 10:08:06 22.2 17 26.3
003A57B6 2019-04-13 09:32:47 22.2 17 26.1
003A57B6 2019-04-13 08:57:28 22.1 17 26.1
003A57B6 2019-04-13 08:22:10 22.1 17 26.1
003A57B6 2019-04-13 07:46:51 22.1 17 26
003A57B6 2019-04-13 07:11:34 22 17 26
003A57B6 2019-04-13 06:36:16 22 17 26
003A57B6 2019-04-13 06:00:58 22 17 26
003A57B6 2019-04-13 05:25:39 22.1 17 26.1
003A57B6 2019-04-13 04:50:21 22.1 17 26.5
003A57B6 2019-04-13 04:15:02 22.1 17 26.5
003A57B6 2019-04-13 03:39:45 22.2 17 26.5
003A57B6 2019-04-13 03:04:28 22.2 17 26.6
003A57B6 2019-04-13 02:29:09 22.2 17 26.7
003A57B6 2019-04-13 01:53:50 22.2 17 26.5
003A57B6 2019-04-13 01:18:32 22.2 17 26.5
003A57B6 2019-04-13 00:43:14 22.3 17 26.6
003A57B6 2019-04-13 00:07:56 22.3 17 26.7
003A57B6 2019-04-12 23:32:38 22.4 17 26.8
003A57B6 2019-04-12 22:57:20 22.5 17 26.7
003A57B6 2019-04-12 22:22:01 22.5 18 26.4
003A57B6 2019-04-12 21:46:42 22.5 18 26.4
003A57B6 2019-04-12 21:11:24 22.7 18 26.4
003A57B6 2019-04-12 20:36:06 22.7 18 25.9
003A57B6 2019-04-12 20:00:48 22.5 17 26
003A57B6 2019-04-12 19:25:30 22.7 17 26.2
003A57B6 2019-04-12 18:50:11 22.7 16 26.2
003A57B6 2019-04-12 18:14:52 22.8 16 26.4
003A57B6 2019-04-12 17:39:33 22.9 16 26.3
003A57B6 2019-04-12 17:04:13 22.9 16 26.6
003A57B6 2019-04-12 16:28:54 22.9 17 26.9
003A57B6 2019-04-12 15:53:34 22.9 17 27.2
003A57B6 2019-04-12 15:18:14 22.9 17 27.3
003A57B6 2019-04-12 14:42:54 22.9 17 27.3
003A57B6 2019-04-12 14:07:34 22.5 17 24.8
003A57B6 2019-04-12 13:32:15 22 18 25.5
003A57B6 2019-04-12 12:56:54 20.5 23 0